User: anonymous   Login
Location: Winthrop
(48.4780°N, 120.1850°W)
Time: 03:35:40
(UTC-07:00)
Language:

A-11 Canister half - Orbit

View from above orbital plane
View from above orbital plane
View from above satellite
View from above satellite

Ground track
Ground track

The orbit data is extracted from the following two-line orbital elements,

1 00051U 60009C   24150.91462863 -.00000165  00000-0 -77215-3 0  9991
2 00051  47.2107 204.6958 0106914 132.5967 228.3899 12.18327312839941
Epoch (UTC): 29 May 2024 21:57:03
Eccentricity: 0.0106914
inclination: 47.2107°
perigee height: 1514 km
apogee height: 1685 km
right ascension of ascending node: 204.6958°
argument of perigee: 132.5967°
revolutions per day: 12.18327312
mean anomaly at epoch: 228.3899°
orbit number at epoch: 83994

The dashed part of the orbit path shows where the satellite is in the earth's shadow,  

DLR